sat.trackr.live / text

‹ back to catalog

STARLINK-36839

NORAD 68125 · 2026-044AA

PAYLOAD ACTIVE UNKNOWN

§ Identity

Operator
Country
US
Launch date
2026-03-08
Launch site
AFWTR
Launch vehicle
Mass (kg)
RCS (m²)

Purposes: comms

External: N2YO · Heavens-Above · Gunter

§ Orbital elements

Epoch: 2026-09-19T15:56:39.320736Z

Period
93.91 min
Inclination
97.2843°
Eccentricity
0.0002681
Mean motion
15.33459518 rev/d
Perigee alt
463.7 km
Apogee alt
467.3 km
Semi-major
6,843.6 km
B*
5.0675e-4
RAAN
221.6881°
Arg perigee
87.6648°
Mean anomaly
272.4902°
Rev number
3,131

§ Raw data

STARLINK-368391 68125U 26044AA  26262.66434399  .00016329  00000+0  50675-3 0  99962 68125  97.2843 221.6881 0002681  87.6648 272.4902 15.33459518 31319

JSON: /api/v1/satellites/68125 · /tle

For live sub-satellite position, see the globe view (requires WebGL).

§ Visibility from observer

Set your observer location to see the next 7 days of passes ≥ 10°. The values pass through the URL so the page stays shareable.

No JS? Fill the form by hand. The geolocation button needs JavaScript.